sat.trackr.live / text

‹ back to catalog

STARLINK-1856

NORAD 47143 · 2020-088X

PAYLOAD ACTIVE UNKNOWN

§ Identity

Operator
Country
US
Launch date
2020-11-25
Launch site
AFETR
Launch vehicle
Mass (kg)
RCS (m²)

Purposes: comms

External: N2YO · Heavens-Above · Gunter

§ Orbital elements

Epoch: 2026-09-04T06:00:02.000160Z

Period
90.55 min
Inclination
53.0371°
Eccentricity
0.0002533
Mean motion
15.90325310 rev/d
Perigee alt
299.7 km
Apogee alt
303.1 km
Semi-major
6,679.5 km
B*
2.7828e-4
RAAN
112.1651°
Arg perigee
190.4226°
Mean anomaly
35.0499°
Rev number
606

§ Raw data

STARLINK-18561 47143U 20088X   26247.25002315  .00083379  13656-4  27828-3 0  99912 47143  53.0371 112.1651 0002533 190.4226  35.0499 15.90325310  6065

JSON: /api/v1/satellites/47143 · /tle

For live sub-satellite position, see the globe view (requires WebGL).

§ Visibility from observer

Set your observer location to see the next 7 days of passes ≥ 10°. The values pass through the URL so the page stays shareable.

No JS? Fill the form by hand. The geolocation button needs JavaScript.